Skip Page Navigation
NASA JPL Caltech
NASA Logo - Jet Propulsion Laboratory + View the NASA Portal
+ Near-Earth Object (NEO) Program
Search JPL
JPL Home Earth Solar System Stars & Galaxies Technology
JPL Solar System Dynamics
BODIES ORBITS EPHEMERIDES TOOLS PHYSICAL DATA DISCOVERY FAQ SITE MAP
JPL Small-Body Database Browser
Search: [ help ]  
(2011 YC63)
Classification: Apollo [NEO]          SPK-ID: 3591893
Ephemeris | Orbit Diagram | Orbital Elements | Physical Parameters | Close-Approach Data ]

[ hide orbit diagram ]
Orbit Diagram
Note: Make sure you have Java enabled on your browser to see the applet. This applet is provided as a 3D orbit visualization tool. The applet was implemented using 2-body methods, and hence should not be used for determining accurate long-term trajectories (over several years or decades) or planetary encounter circumstances. For accurate long-term ephemerides, please instead use our Horizons system.
Orbit Viewer

Additional Notes: the orbits shown in the applet are color coded. The planets are white lines, and the asteroid/comet is a blue line. The bright white line indicates the portion of the orbit that is above the ecliptic plane, and the darker portion is below the ecliptic plane. Likewise for the asteroid/comet orbit, the light blue indicates the portion above the ecliptic plane, and the dark blue the portion below the ecliptic plane.

Orbit Viewer applet originally written and kindly provided by Osamu Ajiki (AstroArts), and further modified by Ron Baalke (JPL).


Orbital Elements at Epoch 2455927.5 (2012-Jan-01.0) TDB
Reference: JPL 1 (heliocentric ecliptic J2000)
 Element Value Uncertainty (1-sigma)   Units 
e .5965449893222937 0.0010211  
a 1.533090312766991 0.0029606 AU
q .6185329685072944 0.00037101 AU
i 10.41111276031926 0.017223 deg
node 98.29114002881367 0.00050174 deg
peri 269.9758767789414 0.0034799 deg
M 26.74718133635211 0.098034 deg
tp 2455875.985966347011
(2011-Nov-10.48596635)
0.039599 JED
period 693.3460345547309
1.90
2.0084
0.005499
d
yr
n .5192212575805575 0.001504 deg/d
Q 2.447647657026688 0.0047267 AU
  Orbit Determination Parameters
   # obs. used (total)      14  
   data-arc span      1 day  
   first obs. used      2011-12-31  
   last obs. used      2012-01-01  
   planetary ephem.      DE405  
   SB-pert. ephem.      SB405-CPV-2  
   condition code      8  
   fit RMS      .80383  
   data source      ORB  
   producer      Otto Matic  
   solution date      2012-Jan-02 17:50:10  

Additional Information
 Earth MOID = .00124071 AU 
 T_jup = 4.251 
[ show covariance matrix ]

Ephemeris | Orbit Diagram | Orbital Elements | Physical Parameters | Close-Approach Data ]

Physical Parameter Table
Parameter Symbol Value Units Sigma Reference Notes
absolute magnitude H 28.988 mag .376 1 autocmod 2.5b

[ show close-approach data ]
Ephemeris | Orbit Diagram | Orbital Elements | Physical Parameters | Close-Approach Data ]
ABOUT SSD CREDITS/AWARDS PRIVACY/COPYRIGHT GLOSSARY LINKS
FirstGov 2013-May-22 20:57 UT
(server date/time)  
NASA Home Page
Site Manager:   Donald K. Yeomans
Webmaster  Alan B. Chamberlin